EW8310 Weather Reports


time (UTC)temp
C
wind
direction
speed
KPH
gust
KPH
rain 1hr
cm
rain 24hr
cm
rain mn
cm
humidity
%
barometer
mb
20260505224238 23 244 14.5 22.5 0.00 1.70 0.58 29 1005.2
20260505223738 23 290 8.0 29.0 0.00 1.70 0.58 29 1005.2
20260505223239 23 183 16.1 29.0 0.00 1.70 0.58 29 1005.3
20260505222738 23 264 12.9 27.4 0.00 1.70 0.58 29 1005.3
20260505222238 23 283 8.0 27.4 0.00 1.70 0.58 31 1005.3
20260505221738 22 303 12.9 27.4 0.00 1.70 0.58 31 1005.3
20260505221234 22 306 11.3 25.7 0.00 1.70 0.58 31 1005.5
20260505220737 22 302 6.4 24.1 0.00 1.70 0.58 31 1005.6
20260505220237 23 275 11.3 32.2 0.00 1.70 0.58 31 1005.7
20260505215957 23 228 12.9 32.2 0.00 1.70 0.58 31 1005.8
20260505215236 23 300 9.7 29.0 0.00 1.70 0.58 31 1005.7
20260505214736 23 289 14.5 29.0 0.00 1.70 0.58 29 1005.7
20260505214237 23 258 14.5 29.0 0.00 1.70 0.58 30 1005.8
20260505213733 23 279 16.1 35.4 0.00 1.70 0.58 29 1005.9
20260505213233 22 286 12.9 35.4 0.00 1.70 0.58 30 1006.0
20260505212733 23 282 16.1 35.4 0.00 1.70 0.58 31 1006.0
20260505212237 23 281 16.1 35.4 0.00 1.70 0.58 32 1006.0
20260505211737 23 186 17.7 33.8 0.00 1.70 0.58 31 1006.1
20260505211236 22 250 14.5 30.6 0.00 1.70 0.58 32 1006.1
20260505211000 22 295 17.7 30.6 0.00 1.70 0.58 33 1006.2
20260505210236 22 259 14.5 30.6 0.00 1.70 0.58 35 1006.2
20260505210226 22 230 9.7 30.6 0.00 1.70 0.58 36 1006.2
20260505205449 22 299 3.2 27.4 0.00 1.70 0.58 38 1006.3
20260505205330 22 285 17.7 30.6 0.00 1.70 0.58 35 1006.2
20260505204235 22 219 14.5 32.2 0.00 1.70 0.58 37 1006.3
20260505203735 22 259 17.7 32.2 0.00 1.70 0.58 36 1006.4
20260505203235 23 54 14.5 30.6 0.00 1.70 0.58 37 1006.3
20260505202735 22 214 11.3 32.2 0.00 1.70 0.58 40 1006.4
20260505202239 22 227 20.9 32.2 0.00 1.70 0.58 40 1006.4
20260505201735 22 305 12.9 25.7 0.00 1.70 0.58 41 1006.3
20260505201235 21 278 4.8 19.3 0.00 1.70 0.58 49 1006.4
20260505200731 20 300 8.0 20.9 0.00 1.70 0.58 49 1006.3
20260505200231 20 288 9.7 22.5 0.00 1.70 0.58 51 1006.5
20260505195735 21 345 9.7 22.5 0.00 1.70 0.58 53 1006.5
20260505195234 20 293 9.7 19.3 0.00 1.70 0.58 51 1006.5
20260505194734 20 320 8.0 20.9 0.00 1.70 0.58 52 1006.6
20260505194234 20 309 6.4 20.9 0.00 1.70 0.58 51 1006.6
20260505193959 21 293 6.4 17.7 0.00 1.70 0.58 50 1006.6
20260505193230 21 213 9.7 17.7 0.00 1.70 0.58 50 1006.6
20260505193215 20 326 8.0 11.3 0.00 1.70 0.58 51 1006.9
20260505192454 21 233 4.8 19.3 0.00 1.70 0.58 52 1006.9
20260505191731 21 321 8.0 19.3 0.00 1.70 0.58 53 1006.9
20260505191233 21 306 1.6 9.7 0.00 1.70 0.58 52 1007.0
20260505190734 20 234 0.0 11.3 0.00 1.70 0.58 55 1007.0
20260505190452 20 329 6.4 11.3 0.00 1.70 0.58 55 1007.1
20260505190222 20 344 4.8 11.3 0.00 1.70 0.58 55 1007.3
20260505185232 20 321 6.4 11.3 0.00 1.70 0.58 57 1007.4
20260505184734 20 276 4.8 9.7 0.00 1.70 0.58 57 1007.5
20260505184233 20 266 3.2 9.7 0.00 1.70 0.58 56 1007.6
20260505183953 20 299 4.8 14.5 0.00 1.70 0.58 57 1007.5
20260505183233 20 269 6.4 14.5 0.00 1.70 0.58 56 1007.5
20260505182732 20 305 1.6 9.7 0.00 1.70 0.58 57 1007.4
20260505182232 19 262 3.2 14.5 0.00 1.70 0.58 57 1007.7
20260505181733 20 252 6.4 14.5 0.00 1.70 0.58 56 1007.7
20260505181228 20 212 0.0 6.4 0.00 1.70 0.58 56 1007.5
20260505180728 20 244 1.6 9.7 0.00 1.70 0.58 57 1007.6
20260505180228 19 233 3.2 9.7 0.00 1.70 0.58 60 1007.7
20260505175728 19 275 3.2 6.4 0.00 1.70 0.58 59 1007.8
20260505175229 19 212 3.2 6.4 0.00 1.70 0.58 59 1007.8
20260505174731 18 152 3.2 9.7 0.00 1.70 0.58 59 1007.8
20260505174232 18 114 3.2 11.3 0.00 1.70 0.58 58 1007.9
20260505173731 18 334 4.8 11.3 0.00 1.70 0.58 59 1007.9
20260505173459 18 255 3.2 8.0 0.00 1.70 0.58 59 1007.8
20260505172731 18 279 0.0 6.4 0.00 1.70 0.58 59 1007.9
20260505172231 18 238 1.6 8.0 0.00 1.70 0.58 60 1008.1
20260505171730 18 254 3.2 8.0 0.00 1.70 0.58 61 1007.9
20260505171231 17 299 1.6 9.7 0.00 1.70 0.58 61 1007.8
20260505170731 17 286 1.6 9.7 0.00 1.70 0.58 64 1007.8
20260505170230 17 300 3.2 8.0 0.00 1.70 0.58 64 1007.8
20260505165955 17 320 3.2 8.0 0.00 1.70 0.58 64 1007.8
20260505165230 17 338 1.6 8.0 0.00 1.70 0.58 65 1007.8
20260505164731 17 250 1.6 8.0 0.00 1.70 0.58 67 1007.8
20260505164230 17 276 0.0 8.0 0.00 1.70 0.58 71 1007.8
20260505163730 16 271 3.2 8.0 0.00 1.70 0.58 69 1007.9
20260505163229 16 292 4.8 6.4 0.00 1.70 0.58 71 1008.1
20260505162730 16 290 3.2 8.0 0.00 1.70 0.58 74 1007.9
20260505162230 16 309 3.2 8.0 0.00 1.70 0.58 75 1008.1
20260505161953 16 300 1.6 6.4 0.00 1.70 0.58 75 1007.9
20260505161449 16 244 0.0 4.8 0.00 1.70 0.58 76 1008.1
20260505160950 16 247 3.2 4.8 0.00 1.70 0.58 74 1008.1
20260505160453 16 286 0.0 3.2 0.00 1.70 0.58 74 1007.8
20260505153228 16 245 3.2 4.8 0.00 1.70 0.58 78 1007.7
20260505152728 16 293 0.0 1.6 0.00 1.70 0.58 80 1007.7
20260505152228 16 290 0.0 1.6 0.00 1.70 0.58 83 1007.7
20260505151728 16 254 0.0 1.6 0.00 1.70 0.58 84 1007.7
20260505151228 15 285 0.0 0.0 0.00 1.70 0.58 85 1007.7
20260505150728 15 298 0.0 0.0 0.00 1.70 0.58 86 1007.6
20260505150228 15 293 0.0 0.0 0.00 1.70 0.58 88 1007.6
20260505130225 14 324 0.0 0.0 0.03 1.70 0.58 93 1006.9
20260505124948 13 309 0.0 0.0 0.05 1.70 0.58 92 1006.8
20260505124225 13 309 0.0 0.0 0.05 1.70 0.58 92 1006.8
20260505123725 13 309 0.0 0.0 0.05 1.70 0.58 92 1006.9
20260505123224 13 309 0.0 0.0 0.05 1.70 0.58 91 1006.6
20260505122723 13 309 0.0 0.0 0.05 1.70 0.58 91 1006.5
20260505122224 13 309 0.0 0.0 0.03 1.68 0.56 91 1006.5
20260505121724 13 35 0.0 0.0 0.03 1.68 0.56 90 1006.4
20260505121223 13 35 0.0 0.0 0.03 1.68 0.56 89 1006.2
20260505120724 14 38 0.0 1.6 0.05 1.68 0.56 89 1006.3
20260505120457 14 39 0.0 3.2 0.05 1.68 0.56 87 1006.3
20260505115723 14 48 0.0 9.7 0.05 1.68 0.56 87 1006.2
20260505115223 13 73 3.2 9.7 0.05 1.68 0.56 88 1006.2
20260505114723 13 48 0.0 6.4 0.05 1.65 0.53 89 1006.2
20260505114444 13 54 1.6 6.4 0.05 1.65 0.53 89 1006.3
20260505113938 13 38 0.0 0.0 0.05 1.65 0.53 90 1006.3
20260505113223 13 55 0.0 0.0 0.05 1.65 0.53 90 1006.6
20260505112947 13 45 0.0 0.0 0.05 1.65 0.53 88 1006.8
20260505112222 13 45 0.0 3.2 0.08 1.65 0.53 87 1006.5
20260505111722 13 45 0.0 8.0 0.08 1.65 0.53 86 1006.4
20260505111222 14 48 3.2 8.0 0.08 1.65 0.53 88 1006.4
20260505110723 13 51 0.0 8.0 0.05 1.63 0.51 89 1006.8
20260505110222 13 51 3.2 8.0 0.05 1.63 0.51 90 1006.9
20260505102221 13 45 0.0 3.2 0.10 1.57 0.48 92 1007.4
20260505101950 13 24 0.0 3.2 0.13 1.57 0.46 92 1007.6
20260505101220 13 44 0.0 0.0 0.13 1.57 0.46 91 1007.7
20260505100720 13 102 0.0 0.0 0.13 1.57 0.46 91 1007.9
20260505100220 13 97 0.0 0.0 0.15 1.57 0.46 92 1008.2
20260505095720 13 99 0.0 0.0 0.15 1.57 0.46 92 1008.1
20260505095220 13 97 0.0 0.0 0.13 1.55 0.46 92 1007.9
20260505094720 13 158 0.0 8.0 0.15 1.55 0.43 92 1008.2
20260505094703 13 79 0.0 8.0 0.15 1.55 0.43 93 1007.9
20260505093943 13 78 1.6 6.4 0.13 1.52 0.43 93 1007.6
20260505093220 13 102 0.0 4.8 0.15 1.52 0.41 93 1008.2
20260505092720 13 162 0.0 4.8 0.13 1.50 0.38 93 1008.8
20260505092219 13 103 0.0 9.7 0.13 1.47 0.36 93 1008.5
20260505091719 14 140 0.0 9.7 0.10 1.45 0.33 93 1008.5
20260505091219 14 69 1.6 9.7 0.13 1.45 0.33 93 1008.4
20260505090719 14 123 1.6 9.7 0.13 1.45 0.33 93 1008.5
20260505090219 14 185 1.6 6.4 0.13 1.42 0.30 93 1008.6
20260505085719 14 121 0.0 6.4 0.13 1.42 0.30 92 1008.7
20260505085218 14 104 1.6 4.8 0.15 1.42 0.30 92 1008.7
20260505084718 14 140 1.6 4.8 0.13 1.40 0.28 92 1008.8
20260505084219 14 162 0.0 1.6 0.15 1.40 0.28 92 1009.1
20260505083718 14 89 0.0 1.6 0.18 1.40 0.28 92 1009.4
20260505083218 14 99 0.0 0.0 0.15 1.37 0.25 92 1009.6
20260505082940 14 125 0.0 0.0 0.18 1.37 0.25 92 1009.7
20260505082218 14 127 0.0 0.0 0.18 1.35 0.25 91 1009.8
20260505081718 14 190 0.0 0.0 0.18 1.35 0.23 92 1009.7
20260505081218 14 190 0.0 0.0 0.18 1.32 0.20 91 1009.9
20260505080718 14 200 0.0 0.0 0.18 1.32 0.20 92 1010.0
20260505080437 14 255 0.0 0.0 0.18 1.30 0.18 91 1010.1
20260505075718 14 255 0.0 0.0 0.18 1.30 0.18 91 1010.2
20260505075217 14 255 0.0 0.0 0.15 1.27 0.15 91 1010.3
20260505074717 14 255 0.0 0.0 0.18 1.27 0.15 90 1010.4
20260505074217 14 255 0.0 0.0 0.15 1.24 0.13 90 1010.5
20260505073717 14 310 0.0 0.0 0.15 1.22 0.10 91 1010.5
20260505073217 14 39 0.0 0.0 0.15 1.22 0.10 91 1010.4
20260505072717 14 21 0.0 0.0 0.15 1.19 0.08 92 1010.4
20260505072217 14 17 0.0 0.0 0.15 1.17 0.08 92 1010.3
20260505071717 14 17 0.0 0.0 0.18 1.17 0.05 92 1010.3
20260505071217 14 17 0.0 0.0 0.18 1.14 0.03 92 1010.3
20260505070717 14 17 0.0 0.0 0.23 1.14 0.03 91 1010.3
20260505070437 14 18 0.0 0.0 0.23 1.12 0.03 91 1010.2
20260505065941 14 18 0.0 0.0 0.28 1.12 1.12 90 1010.1
20260505065216 14 18 0.0 0.0 0.30 1.12 1.12 90 1010.2
20260505064716 14 28 0.0 0.0 0.30 1.09 1.09 90 1010.2
20260505064440 14 27 0.0 0.0 0.30 1.09 1.09 90 1010.1
20260505063716 14 27 0.0 0.0 0.30 1.07 1.07 89 1010.0
20260505063216 14 27 0.0 0.0 0.33 1.07 1.07 89 1010.0
20260505062715 14 27 0.0 0.0 0.30 1.04 1.04 89 1010.1
20260505062215 14 11 0.0 0.0 0.30 1.02 1.02 89 1010.1
20260505061716 14 0 0.0 0.0 0.28 0.99 0.99 90 1010.2
20260505061216 14 0 0.0 0.0 0.28 0.97 0.97 90 1010.2
20260505060715 15 49 0.0 0.0 0.23 0.91 0.91 90 1010.2
20260505060215 15 49 0.0 0.0 0.20 0.89 0.89 90 1010.2
20260505055714 15 49 0.0 0.0 0.15 0.84 0.84 90 1010.2
20260505055214 15 49 0.0 0.0 0.15 0.81 0.81 90 1010.2
20260505054714 15 49 0.0 4.8 0.13 0.79 0.79 90 1009.9
20260505054214 15 24 0.0 4.8 0.15 0.79 0.79 90 1010.0
20260505053715 15 34 0.0 0.0 0.13 0.76 0.76 90 1010.0
20260505053214 15 173 0.0 0.0 0.10 0.74 0.74 90 1010.2
20260505052714 15 173 0.0 0.0 0.10 0.74 0.74 90 1010.2
20260505052214 15 173 0.0 0.0 0.08 0.71 0.71 89 1010.1
20260505051939 15 326 0.0 0.0 0.10 0.71 0.71 89 1009.9
20260505051214 15 320 0.0 0.0 0.08 0.69 0.69 89 1009.9
20260505050714 15 320 0.0 0.0 0.08 0.69 0.69 89 1009.9
20260505050214 15 319 0.0 0.0 0.08 0.69 0.69 89 1010.0
20260505041713 15 24 0.0 3.2 0.03 0.61 0.61 83 1010.2
20260505041429 15 336 0.0 6.4 0.03 0.61 0.61 81 1010.1
20260505040712 15 39 0.0 8.0 0.03 0.61 0.61 80 1010.1
20260505040212 15 28 0.0 9.7 0.05 0.61 0.61 80 1010.1
20260505035713 15 55 1.6 9.7 0.05 0.58 0.58 79 1010.0
20260505035212 15 59 0.0 6.4 0.05 0.58 0.58 81 1009.9
20260505034934 15 69 0.0 20.9 0.08 0.58 0.58 80 1009.7
20260505034212 15 37 9.7 20.9 0.08 0.58 0.58 79 1009.6
20260505033712 14 52 8.0 19.3 0.10 0.58 0.58 81 1009.4
20260505033211 14 56 4.8 16.1 0.13 0.58 0.58 81 1009.4
20260505032711 14 3 4.8 14.5 0.13 0.58 0.58 81 1009.1
20260505032211 14 49 3.2 14.5 0.13 0.58 0.58 83 1009.2
20260505031711 13 59 4.8 14.5 0.15 0.58 0.58 84 1009.4
20260505031430 13 63 4.8 9.7 0.18 0.58 0.58 83 1009.7
20260505030712 13 45 3.2 9.7 0.18 0.58 0.58 82 1010.0
20260505030211 13 69 4.8 9.7 0.18 0.56 0.56 80 1010.3
20260505025711 13 31 1.6 8.0 0.18 0.53 0.56 82 1010.3
20260505025655 13 42 0.0 1.6 0.20 0.53 0.53 82 1010.4
20260505024711 13 42 0.0 1.6 0.20 0.51 0.51 79 1010.7
20260505024211 13 55 0.0 4.8 0.23 0.51 0.51 76 1010.4
20260505024149 13 35 0.0 4.8 0.20 0.48 0.48 79 1010.4
20260505023210 14 61 0.0 3.2 0.20 0.46 0.48 74 1010.4
20260505022710 13 38 0.0 3.2 0.23 0.46 0.46 77 1010.4
20260505022209 14 6 0.0 6.4 0.25 0.46 0.46 78 1010.4
20260505022200 14 34 0.0 6.4 0.25 0.43 0.43 77 1010.3
20260505021209 14 333 0.0 3.2 0.23 0.41 0.43 76 1010.2
20260505020930 14 307 0.0 6.4 0.23 0.41 0.41 76 1010.1
20260505020209 15 303 0.0 8.0 0.23 0.38 0.38 76 1010.3
20260505015709 15 354 0.0 11.3 0.20 0.36 0.36 72 1010.1
20260505015209 15 314 4.8 11.3 0.20 0.33 0.33 69 1010.0
20260505014710 15 330 0.0 11.3 0.18 0.30 0.30 71 1010.1
20260505014209 15 314 3.2 11.3 0.15 0.28 0.28 71 1010.0
20260505013932 15 292 3.2 16.1 0.15 0.28 0.28 67 1009.9
20260505013209 16 320 3.2 16.1 0.15 0.25 0.25 68 1009.6
20260505012708 16 341 3.2 8.0 0.13 0.23 0.23 69 1009.5
20260505012209 16 319 1.6 4.8 0.10 0.20 0.20 70 1009.5
20260505011709 16 24 0.0 3.2 0.10 0.18 0.18 74 1009.2
20260505011208 16 326 0.0 3.2 0.10 0.18 0.18 75 1009.1
20260505010708 16 314 0.0 0.0 0.13 0.18 0.18 78 1009.0
20260505010208 16 340 0.0 0.0 0.10 0.15 0.15 80 1009.1
20260505005709 17 340 0.0 0.0 0.10 0.15 0.15 77 1009.1
20260505005207 17 341 0.0 0.0 0.08 0.13 0.15 76 1009.1
20260505004707 17 93 0.0 0.0 0.08 0.13 0.13 74 1009.1
20260505004659 17 94 0.0 0.0 0.08 0.13 0.13 73 1009.2
20260505003925 17 45 0.0 0.0 0.08 0.13 0.13 74 1009.4
20260505003207 17 45 0.0 0.0 0.05 0.10 0.10 69 1009.2
20260505002707 17 316 0.0 0.0 0.10 0.10 0.10 70 1009.2
20260505002208 17 316 0.0 4.8 0.10 0.10 0.10 63 1009.1
20260505001928 17 76 0.0 4.8 0.08 0.08 0.08 61 1009.0
20260505001206 18 125 0.0 0.0 0.08 0.08 0.08 62 1009.0
20260505000922 18 204 0.0 9.7 0.05 0.05 0.05 62 1008.7
20260505000207 18 56 0.0 9.7 0.05 0.05 0.05 57 1008.5
20260504235706 18 97 0.0 9.7 0.05 0.05 0.05 56 1008.4
20260504235206 17 17 3.2 11.3 0.05 0.05 0.05 57 1008.3
20260504234929 17 27 4.8 11.3 0.05 0.05 0.05 61 1008.5
20260504234207 17 30 4.8 17.7 0.05 0.05 0.05 62 1008.7
20260504233706 17 354 4.8 24.1 0.05 0.05 0.05 55 1009.0
20260504233206 18 317 9.7 24.1 0.05 0.05 0.05 53 1009.4
20260504232929 20 289 8.0 17.7 0.00 0.00 0.00 44 1009.5
20260504232206 21 320 6.4 25.7 0.00 0.00 0.00 36 1009.0
20260504231706 22 321 9.7 25.7 0.00 0.00 0.00 32 1009.1
20260504231206 23 296 12.9 27.4 0.00 0.00 0.00 28 1008.9
20260504230705 23 309 19.3 33.8 0.00 0.00 0.00 27 1008.8
20260504230205 23 259 14.5 33.8 0.00 0.00 0.00 26 1008.5
20260504225705 23 299 17.7 33.8 0.00 0.00 0.00 25 1008.3
20260504225206 24 272 14.5 33.8 0.00 0.00 0.00 25 1008.3
20260504224705 24 285 12.9 30.6 0.00 0.00 0.00 23 1008.1